YAHSAT 1A (37393 NORAD) Tracking and Keplerian Element Data

This shows tracking and keplerian element data for the satellite.

Feedback or suggestion? Click here.




ElementValue
Catalog37393
NameYAHSAT 1A
Epoch Orbit5056
Epoch Day35.12264385
Epoch Year2025
RAAN103.2632
Inclination0.0152
Eccentricity0.0003132
Argument of Perigee217.4765
Mean Anonmoly270.4187
Mean Motion1.00270564
Decay Rate1.05E-06
L11 37393U 11016B 25035.12264385 .00000105 00000+0 00000+0 0 9994
L22 37393 0.0152 103.2632 0003132 217.4765 270.4187 1.00270564 50563



Live tracking and technical data element details for YAHSAT 1A (NORAD 37393). YAHSAT 1A can be tracked NOW for your location showing map with azimuth and elevation plus other details from your city location.







IsCatalogInMostPopularTable: catalog: 37393, numindb: 388
Update: records affected: 1



GetName: 37393 YAHSAT 1A

Hit Count: updated at: Thu, 22 May 2025 03:57:51 GMT